Home   Weather   Happy Valley-Goose Bay   Past weeks
Flag for Canada

Past Weather in Happy Valley-Goose Bay, Newfoundland and Labrador, Canada — Yesterday and Last 2 Weeks

Now
45 °F

Broken clouds.


Feels Like: 42 °F
Forecast: 73 / 33 °F
Wind: 5 mph from Southwest

Location: Goose

Current Time: May 25, 2020 at 8:43:15 am

Latest Report: May 25, 2020 at 8:00 am


Visibility: 15 mi

Pressure: 29.98 "Hg

Humidity: 49%

Dew Point: 27 °F

Location of Happy Valley-Goose BayLocation

Past Weather in Happy Valley-Goose Bay — Graph

°F

Happy Valley-Goose Bay Temperature Yesterday

Maximum temperature yesterday: 57 °F (at 4:00 pm)
Minimum temperature yesterday: 32 °F (at 5:00 am)
Average temperature yesterday: 45 °F

High & Low Weather Summary for the Past Weeks

 TemperatureHumidityPressure
High64 °F (May 21, 5:00 pm)100% (May 10, 8:39 am)30.36 "Hg (May 10, 8:39 am)
Low30 °F (May 22, 10:00 am)21% (May 24, 5:00 pm)28.87 "Hg (May 10, 2:00 pm)
Average39 °F72%29.76 "Hg
* Reported May 10 7:00 am — May 25 7:00 am, Happy Valley-Goose Bay. Weather by CustomWeather, © 2020

Note: Actual official high and low records may vary slightly from our data, if they occured in-between our weather recording intervals... More about our weather records

Happy Valley-Goose Bay Weather History for the Previous 24 Hours

Scroll right to see more
 ConditionsComfort  
Time TempWeatherWind HumidityBarometerVisibility
7:00 am
Mon, May 25
41 °FBroken clouds.No wind53%29.99 "Hg15 mi
6:00 am37 °FPassing clouds.No wind65%30.00 "Hg15 mi
5:00 am36 °FPartly sunny.3 mph65%30.01 "Hg15 mi
4:00 am34 °FPassing clouds.3 mph65%30.03 "Hg15 mi
3:00 am32 °FPassing clouds.5 mph69%30.04 "Hg15 mi
2:00 am34 °FPassing clouds.6 mph70%30.05 "Hg15 mi
1:00 am36 °FPassing clouds.2 mph65%30.07 "Hg15 mi
12:00 am41 °FPassing clouds.5 mph45%30.08 "Hg15 mi
11:00 pm
Sun, May 24
43 °FPassing clouds.5 mph42%30.09 "Hg15 mi
10:00 pm46 °FPassing clouds.3 mph37%30.09 "Hg15 mi
9:00 pm52 °FPartly sunny.6 mph26%30.09 "Hg15 mi
8:00 pm55 °FPartly sunny.10 mph24%30.07 "Hg15 mi
7:00 pm57 °FPassing clouds.13 mph23%30.06 "Hg15 mi
6:00 pm57 °FPassing clouds.5 mph21%30.06 "Hg15 mi
5:00 pm57 °FPassing clouds.12 mph21%30.06 "Hg15 mi
4:00 pm57 °FScattered clouds.6 mph25%30.07 "Hg15 mi
3:00 pm55 °FPassing clouds.8 mph26%30.08 "Hg15 mi
2:00 pm54 °FPassing clouds.10 mph28%30.09 "Hg15 mi
1:00 pm50 °FPassing clouds.16 mph35%30.11 "Hg15 mi
12:00 pm48 °FPassing clouds.13 mph37%30.12 "Hg15 mi
11:00 am45 °FPassing clouds.8 mph42%30.14 "Hg15 mi
10:00 am41 °FPassing clouds.8 mph49%30.15 "Hg15 mi
9:00 am39 °FPartly sunny.14 mph52%30.16 "Hg15 mi
8:00 am37 °FPartly sunny.18 mph56%30.16 "Hg15 mi
Weather by CustomWeather, © 2020

See weather overview

Advertising